Weather History for Twin Falls, ID

Change the Weather History Date:

Thursday, September 26, 2013

  Actual Average Record
Temperature  
Mean Temperature 45 °F -  
Max Temperature 51 °F 72 °F 89 °F (1989)
Min Temperature 39 °F 44 °F 29 °F (1984)
Degree Days  
Heating Degree Days 20 7  
Month to date heating degree days 78 106  
Since 1 July heating degree days 78 127  
Cooling Degree Days 0 1  
Month to date cooling degree days 99 60  
Year to date cooling degree days 1138 677  
Moisture  
Dew Point 37 °F    
Average Humidity 77    
Maximum Humidity 92    
Minimum Humidity 61    
Precipitation  
Precipitation 0.07 in 0.02 in 0.64 in (1982)
Month to date precipitation 0.88 0.48  
Year to date precipitation 4.07 7.36  
Sea Level Pressure  
Sea Level Pressure 29.80 in    
Wind  
Wind Speed 9 mph (SW)    
Max Wind Speed 17 mph    
Max Gust Speed 22 mph    
Visibility 10 miles    
Events Rain    
T = Trace of Precipitation, MM = Missing Value Source: NWS Daily Summary

Daily Weather History Graph

Daily Weather History Graph

Search for Another Location

Airport:

Trip Planner

Search our weather history database for the weather conditions in past years. The results will help you decide how hot, cold, wet, or windy it might be!

Date:

Astronomy

Sep. 26, 2013 Rise Set
Actual Time 7:29 AM MDT 7:27 PM MDT
Civil Twilight 7:01 AM MDT 7:55 PM MDT
Nautical Twilight 6:29 AM MDT 8:28 PM MDT
Astronomical Twilight 5:55 AM MDT 9:01 PM MDT
Moon No Moon Rise 2:31 PM MDT (9/26)
Length of Visible Light 12h 53m
Length of Day
11h 57m
Waning Gibbous, 54% of the Moon is Illuminated
Sep 26
Waning Gibbous
Sep 26
Last Quarter
Oct 4
New
Oct 11
First Quarter
Oct 18
Full

Hourly Weather History & Observations

Time (MDT) Temp. Windchill Dew Point Humidity Pressure Visibility Wind Dir Wind Speed Gust Speed Precip Events Conditions
12:01 AM 42.8 °F 37.5 °F 35.6 °F 76% 29.79 in 10.0 mi SSW 9.2 mph - N/A   Overcast
12:17 AM 42.8 °F 36.6 °F 35.6 °F 76% 29.78 in 10.0 mi SSW 11.5 mph - N/A   Overcast
12:53 AM 42.1 °F 36.1 °F 35.1 °F 76% 29.74 in 10.0 mi South 10.4 mph - N/A   Overcast
1:07 AM 42.8 °F 36.2 °F 35.6 °F 76% 29.79 in 10.0 mi South 12.7 mph - N/A   Overcast
1:25 AM 42.8 °F 36.6 °F 35.6 °F 76% 29.79 in 10.0 mi SSW 11.5 mph - N/A   Overcast
1:35 AM 42.8 °F 37.5 °F 35.6 °F 76% 29.79 in 9.0 mi SSW 9.2 mph - 0.00 in Rain Light Rain
1:53 AM 41.0 °F 33.5 °F 36.0 °F 82% 29.73 in 4.0 mi SSW 13.8 mph 19.6 mph 0.02 in Rain Light Rain
2:53 AM 41.0 °F 33.1 °F 36.0 °F 82% 29.73 in 10.0 mi South 15.0 mph 21.9 mph 0.01 in   Overcast
3:53 AM 41.0 °F 34.7 °F 36.0 °F 82% 29.73 in 10.0 mi South 10.4 mph - N/A   Overcast
4:53 AM 42.1 °F 35.7 °F 36.0 °F 79% 29.72 in 10.0 mi SSW 11.5 mph - N/A   Overcast
5:40 AM 41.0 °F 34.3 °F 37.4 °F 87% 29.79 in 10.0 mi SSW 11.5 mph - 0.00 in Rain Light Rain
5:53 AM 41.0 °F 33.9 °F 37.0 °F 86% 29.73 in 9.0 mi South 12.7 mph - 0.00 in Rain Light Rain
6:39 AM 41.0 °F 33.9 °F 35.6 °F 81% 29.79 in 9.0 mi SSW 12.7 mph - 0.02 in Rain Light Rain
6:50 AM 41.0 °F 34.3 °F 35.6 °F 81% 29.79 in 10.0 mi SSW 11.5 mph - 0.02 in Rain Light Rain
6:53 AM 39.9 °F 32.1 °F 36.0 °F 86% 29.73 in 10.0 mi SSW 13.8 mph - 0.02 in Rain Light Rain
7:02 AM 39.2 °F 32.0 °F 35.6 °F 87% 29.79 in 10.0 mi SSW 11.5 mph - 0.00 in Rain Light Rain
7:53 AM 41.0 °F 34.3 °F 36.0 °F 82% 29.75 in 10.0 mi South 11.5 mph - 0.00 in Rain Light Rain
8:53 AM 41.0 °F 35.2 °F 37.0 °F 86% 29.76 in 10.0 mi South 9.2 mph - 0.00 in   Overcast
9:53 AM 43.0 °F 36.4 °F 37.0 °F 80% 29.77 in 9.0 mi SSW 12.7 mph - 0.00 in Rain Light Rain
10:44 AM 42.8 °F 36.6 °F 37.4 °F 81% 29.81 in 10.0 mi WSW 11.5 mph - 0.00 in   Overcast
10:53 AM 43.0 °F 36.8 °F 37.9 °F 82% 29.78 in 10.0 mi SW 11.5 mph - 0.00 in Rain Light Rain
11:02 AM 44.6 °F 39.2 °F 39.2 °F 81% 29.82 in 10.0 mi SW 10.4 mph - 0.00 in   Overcast
11:53 AM 46.9 °F - 39.0 °F 74% 29.77 in 10.0 mi SW 6.9 mph - 0.00 in   Overcast
12:53 PM 46.0 °F 43.1 °F 39.0 °F 76% 29.77 in 10.0 mi WNW 5.8 mph - N/A   Overcast
1:26 PM 48.2 °F - 37.4 °F 66% 29.82 in 10.0 mi Calm Calm - 0.00 in   Overcast
1:42 PM 48.2 °F - 37.4 °F 66% 29.82 in 10.0 mi NW 4.6 mph - 0.00 in   Overcast
1:53 PM 46.9 °F - 37.9 °F 71% 29.78 in 10.0 mi West 9.2 mph - 0.00 in   Overcast
2:53 PM 48.0 °F - 39.0 °F 71% 29.77 in 10.0 mi NNW 4.6 mph - 0.02 in Rain Light Rain
3:53 PM 50.0 °F - 39.0 °F 66% 29.78 in 10.0 mi NW 4.6 mph - 0.00 in   Overcast
4:33 PM 50.0 °F - 37.4 °F 62% 29.84 in 10.0 mi West 4.6 mph - N/A   Overcast
4:53 PM 50.0 °F - 37.0 °F 61% 29.78 in 10.0 mi West 6.9 mph - N/A   Overcast
5:53 PM 48.9 °F - 37.9 °F 66% 29.82 in 10.0 mi WNW 4.6 mph - N/A   Mostly Cloudy
6:36 PM 46.4 °F 42.4 °F 39.2 °F 76% 29.87 in 10.0 mi SW 8.1 mph - 0.00 in Rain Light Rain
6:43 PM 46.4 °F 43.5 °F 39.2 °F 76% 29.87 in 10.0 mi SW 5.8 mph - 0.00 in Rain Light Rain
6:53 PM 46.0 °F 44.8 °F 39.9 °F 79% 29.83 in 6.0 mi SSW 3.5 mph - 0.00 in Rain Light Rain
7:53 PM 45.0 °F 42.6 °F 39.0 °F 80% 29.85 in 10.0 mi SW 4.6 mph - 0.00 in   Overcast
8:53 PM 43.0 °F 38.8 °F 39.0 °F 86% 29.87 in 10.0 mi SW 6.9 mph - N/A   Partly Cloudy
9:53 PM 43.0 °F 38.2 °F 37.9 °F 82% 29.88 in 10.0 mi SW 8.1 mph - N/A   Mostly Cloudy
10:53 PM 41.0 °F 35.8 °F 37.9 °F 89% 29.90 in 10.0 mi SW 8.1 mph - N/A   Scattered Clouds
11:53 PM 39.9 °F 34.5 °F 37.9 °F 93% 29.91 in 9.0 mi WSW 8.1 mph - N/A   Partly Cloudy